Stations météo

réclame
Mon MeteoGroup
Decimomannu, Italie (16546): Température de l'air & dewpoint: 13.10.2017 14:00:00 - 19.10.2017 14:00:00 (CEST)Decimomannu, Italie (16546): Vitesse du vent: 13.10.2017 14:00:00 - 19.10.2017 14:00:00 (CEST)Decimomannu, Italie (16546): Direction du vent: 13.10.2017 14:00:00 - 19.10.2017 14:00:00 (CEST)Decimomannu, Italie (16546): reduced air pressure: 13.10.2017 14:00:00 - 19.10.2017 14:00:00 (CEST)Decimomannu, Italie (16546): visibility: 13.10.2017 14:00:00 - 19.10.2017 14:00:00 (CEST)
Date & Time tt [°C] td [°C] ff [km/h] ff [knt] dd ppp [hPa] vv [km]
19.10.2017 14:00:00 23,0 19,8 22 12 SSE 1014,1 20
19.10.2017 13:00:00 23,0 20,0 26 14 SSE - 10
19.10.2017 12:00:00 24,0 18,0 18 10 SE - 10
19.10.2017 11:00:00 24,0 19,1 18 10 SSE 1014,6 10
19.10.2017 10:00:00 20,0 16,0 4 2 E - 10
19.10.2017 09:00:00 16,0 13,0 8 4 NNE - 10
19.10.2017 08:00:00 13,4 10,9 9 5 NE 1014,9 10
19.10.2017 07:00:00 14,0 11,0 11 6 NE - 10
19.10.2017 06:00:00 12,0 10,0 5 3 NNW - 10
19.10.2017 05:00:00 13,2 10,5 11 6 NE 1015,2 10
19.10.2017 04:00:00 16,0 14,0 11 6 ENE - 10
19.10.2017 03:00:00 14,0 11,0 8 4 NE - 10
19.10.2017 02:00:00 14,4 11,7 8 4 ENE 1016,3 10
19.10.2017 01:00:00 14,0 12,0 11 6 E - 10
19.10.2017 00:00:00 16,0 14,0 9 5 NE - 10
18.10.2017 23:00:00 17,4 14,7 9 5 ENE 1016,8 10
18.10.2017 22:00:00 18,0 15,0 8 4 E - 10
18.10.2017 21:00:00 19,0 16,0 18 10 SSE - 10
18.10.2017 20:00:00 19,8 17,6 21 11 SSE 1016,1 10
18.10.2017 19:00:00 20,0 18,0 18 10 SSE - 10
18.10.2017 18:00:00 21,0 19,0 21 11 SE - 10
18.10.2017 17:00:00 22,8 20,1 24 13 SSE 1016,2 10
18.10.2017 16:00:00 24,0 20,0 26 14 SSE - 10
18.10.2017 15:00:00 24,0 16,0 22 12 SSE - 10
18.10.2017 14:00:00 24,6 17,4 18 10 SSE 1017,7 10
18.10.2017 13:00:00 25,0 18,0 18 10 SSE - 10
18.10.2017 12:00:00 24,0 18,0 16 9 SSE - 10
18.10.2017 11:00:00 20,2 15,8 5 3 SW 1019,6 10
18.10.2017 10:00:00 16,0 13,0 2 1 NNW - 10
18.10.2017 09:00:00 10,0 8,0 5 3 NW - 10
18.10.2017 08:00:00 10,2 7,6 11 6 N 1019,9 10
18.10.2017 07:00:00 10,0 8,0 9 5 N - 10
18.10.2017 06:00:00 10,0 8,0 8 4 NNW - 10
18.10.2017 05:00:00 11,6 8,8 8 4 NNW 1020,3 10
18.10.2017 04:00:00 11,0 9,0 5 3 WNW - 10
18.10.2017 03:00:00 14,0 11,0 8 4 NE - 9
18.10.2017 02:00:00 13,8 11,1 9 5 ENE 1021,7 10
18.10.2017 01:00:00 14,0 12,0 8 4 NNE - 10
18.10.2017 00:00:00 15,0 12,0 4 2 ENE - 10
17.10.2017 23:00:00 15,0 12,5 5 3 E 1022,0 10
17.10.2017 22:00:00 16,0 14,0 5 3 ENE - 10
17.10.2017 21:00:00 17,0 15,0 8 4 SE - 10
17.10.2017 20:00:00 18,0 15,8 15 8 SE 1021,7 10
17.10.2017 19:00:00 19,0 17,0 18 10 SE - 10
17.10.2017 18:00:00 21,0 18,0 21 11 SE - 10
17.10.2017 17:00:00 22,2 17,4 21 11 SSE 1021,7 10
17.10.2017 16:00:00 23,0 16,0 22 12 SSE - 10
17.10.2017 15:00:00 24,0 17,0 22 12 SE - 10
17.10.2017 14:00:00 23,8 14,2 21 11 SSE 1023,1 10
17.10.2017 13:00:00 24,0 17,0 15 8 SSE - 10
17.10.2017 12:00:00 23,0 16,0 15 8 SSE - 10
17.10.2017 11:00:00 21,4 15,0 5 3 S 1024,9 10
17.10.2017 10:00:00 16,0 11,0 2 1 NE - 10
17.10.2017 09:00:00 13,0 10,0 2 1 N - 10
17.10.2017 08:00:00 9,0 6,4 5 3 NW 1024,9 10
17.10.2017 07:00:00 9,0 7,0 4 2 NNW - 7
17.10.2017 06:00:00 10,0 7,0 5 3 NNE - 10
17.10.2017 05:00:00 10,0 7,6 2 1 NNW 1024,9 10
17.10.2017 04:00:00 11,0 8,0 9 5 NE - 10
17.10.2017 03:00:00 12,0 9,0 9 5 NE - 10
17.10.2017 02:00:00 13,0 10,4 9 5 NE 1025,9 10
17.10.2017 01:00:00 14,0 11,0 8 4 NE - 10
17.10.2017 00:00:00 15,0 13,0 4 2 NE - 10
16.10.2017 23:00:00 16,0 13,7 8 4 E 1026,0 10
16.10.2017 22:00:00 17,0 14,0 8 4 E - 10
16.10.2017 21:00:00 18,0 16,0 4 2 ENE - 10
16.10.2017 20:00:00 20,0 18,0 11 6 SE 1026,0 10
16.10.2017 19:00:00 19,0 17,0 16 9 SE - 10
16.10.2017 18:00:00 22,0 18,0 22 12 SE - 10
16.10.2017 17:00:00 22,4 17,5 21 11 SSE 1025,5 10
16.10.2017 16:00:00 23,0 17,0 26 14 SSE - 10
16.10.2017 15:00:00 24,0 17,0 21 11 SSE - 10
16.10.2017 14:00:00 24,2 16,7 21 11 SE 1026,4 10
16.10.2017 13:00:00 23,0 17,0 16 9 SSE - 10
16.10.2017 12:00:00 24,0 16,0 11 6 SSE - 10
16.10.2017 11:00:00 22,2 17,5 8 4 S 1027,9 10
16.10.2017 10:00:00 17,0 14,0 4 2 NE - 10
16.10.2017 09:00:00 12,0 10,0 5 3 NW - 10
16.10.2017 08:00:00 10,6 8,5 9 5 NW 1027,1 10
16.10.2017 07:00:00 11,0 9,0 8 4 NNW - 10
16.10.2017 06:00:00 10,0 9,0 4 2 WNW - 10
16.10.2017 05:00:00 10,8 9,2 2 1 WNW 1026,9 10
16.10.2017 04:00:00 10,0 8,0 2 1 SSW - 10
16.10.2017 03:00:00 13,0 11,0 5 3 NE - 10
16.10.2017 02:00:00 13,2 10,7 5 3 NNE 1027,6 10
16.10.2017 01:00:00 13,0 11,0 5 3 NNE - 10
16.10.2017 00:00:00 14,0 12,0 4 2 ENE - 10
15.10.2017 23:00:00 15,0 13,4 5 3 E 1027,5 10
15.10.2017 22:00:00 16,0 14,0 5 3 ESE - 10
15.10.2017 21:00:00 18,0 16,0 4 2 SE - 10
15.10.2017 20:00:00 18,8 17,1 9 5 SE 1027,2 10
15.10.2017 19:00:00 20,0 18,0 18 10 SE - 10
15.10.2017 18:00:00 21,0 17,0 16 9 SSE - 10
15.10.2017 17:00:00 23,4 17,8 21 11 SSE 1026,6 10
15.10.2017 16:00:00 24,0 16,0 16 9 SSE - 10
15.10.2017 15:00:00 25,0 15,0 13 7 SE - 10
15.10.2017 14:00:00 25,4 13,9 5 3 SSE 1027,7 10
15.10.2017 13:00:00 25,0 15,0 8 4 ESE - 10
15.10.2017 12:00:00 24,0 15,0 4 2 ESE - 10
15.10.2017 11:00:00 21,4 16,6 2 1 NNE 1028,9 10
15.10.2017 10:00:00 18,0 16,0 5 3 NNW - 10
15.10.2017 09:00:00 15,0 14,0 4 2 N - 10
15.10.2017 08:00:00 12,0 11,1 5 3 NNW 1028,3 10
15.10.2017 07:00:00 13,0 13,0 8 4 NW - 10
15.10.2017 06:00:00 15,0 14,0 8 4 NNW - 10
15.10.2017 05:00:00 15,4 14,9 4 2 N 1027,7 10
15.10.2017 04:00:00 16,0 15,0 5 3 NNW - 10
15.10.2017 03:00:00 17,0 17,0 8 4 NW - 10
15.10.2017 02:00:00 18,2 17,6 4 2 ENE 1027,7 10
15.10.2017 01:00:00 19,0 18,0 5 3 NE - 10
15.10.2017 00:00:00 19,0 18,0 2 1 NNE - 10
14.10.2017 23:00:00 19,0 18,0 5 3 S 1027,9 10
14.10.2017 22:00:00 20,0 18,0 8 4 S - 10
14.10.2017 21:00:00 21,0 19,0 9 5 SSE - 10
14.10.2017 20:00:00 21,0 18,6 11 6 SE 1026,7 10
14.10.2017 19:00:00 21,0 18,0 18 10 SSE - 10
14.10.2017 18:00:00 23,0 18,0 21 11 SSE - 10
14.10.2017 17:00:00 25,0 19,2 18 10 SSE 1025,8 10
14.10.2017 16:00:00 27,0 18,0 15 8 SSE - 10
14.10.2017 15:00:00 27,0 18,0 16 9 SSE - 10
14.10.2017 14:00:00 27,6 18,3 9 5 S 1026,5 10
14.10.2017 13:00:00 25,0 18,0 5 3 WNW - 10
14.10.2017 12:00:00 26,0 21,0 5 3 SSW - 10
14.10.2017 11:00:00 23,0 21,1 8 4 NW 1026,8 10
14.10.2017 10:00:00 20,0 19,0 4 2 NW - 10
14.10.2017 09:00:00 17,0 16,0 4 2 NW - 10
14.10.2017 08:00:00 14,6 13,3 8 4 NW 1026,5 10
14.10.2017 07:00:00 15,0 14,0 4 2 NW - 10
14.10.2017 06:00:00 15,0 14,0 2 1 ENE - 10
14.10.2017 05:00:00 16,8 15,8 5 3 NW 1025,9 10
14.10.2017 04:00:00 17,0 16,0 4 2 NW - 10
14.10.2017 03:00:00 18,0 17,0 4 2 N - 10
14.10.2017 02:00:00 18,2 17,4 5 3 NNE 1025,9 10
14.10.2017 01:00:00 19,0 18,0 4 2 NNW - 10
14.10.2017 00:00:00 19,0 18,0 4 2 NW - 10
13.10.2017 23:00:00 19,8 18,6 5 3 ENE 1025,8 10
13.10.2017 22:00:00 21,0 19,0 9 5 ENE - 10
13.10.2017 21:00:00 21,0 20,0 8 4 NNE - 10
13.10.2017 20:00:00 21,0 19,3 2 1 E 1025,5 10
13.10.2017 19:00:00 22,0 19,0 5 3 E - 10
13.10.2017 18:00:00 23,0 19,0 15 8 SE - 10
13.10.2017 17:00:00 25,4 18,4 18 10 SSE 1024,6 10
13.10.2017 16:00:00 26,0 18,0 16 9 SSE - 10
13.10.2017 15:00:00 27,0 13,0 9 5 NW - 10
13.10.2017 14:00:00 27,4 17,3 8 4 WSW 1025,7 10

tt = Température de l'air
td = dewpoint
ff = Vitesse du vent
dd = Direction du vent
ppp = reduced air pressure
vv = visibility

stations d'obs. à proximité